DW4116 Weather Reports


Display with metric or nautical units.
time (UTC)temp
F
wind
direction
speed
MPH
gust
MPH
rain 1hr
in
rain 24hr
in
rain mn
in
humidity
%
barometer
mb
20210619154554 82 250 2.0 0.0 0.00 0.00 0.00 71 1009.1
20210619153101 82 323 3.0 0.0 0.00 0.00 0.00 71 1009.0
20210619151614 81 261 4.0 0.0 0.00 0.00 0.00 72 1009.1
20210619150131 80 279 3.0 0.0 0.00 0.00 0.00 73 1008.9
20210619144627 79 289 2.0 0.0 0.00 0.00 0.00 76 1009.1
20210619143152 78 266 2.0 0.0 0.00 0.00 0.00 77 1008.9
20210619141616 78 238 2.0 0.0 0.00 0.00 0.00 77 1008.8
20210619140143 77 290 1.0 0.0 0.00 0.00 0.00 78 1008.8
20210619134624 77 219 1.0 0.0 0.00 0.00 0.00 78 1008.8
20210619133204 76 211 1.0 0.0 0.00 0.00 0.00 80 1009.1
20210619131600 76 260 1.0 0.0 0.00 0.00 0.00 79 1009.1
20210619130046 75 254 0.0 0.0 0.00 0.00 0.00 80 1009.2
20210619124600 75 228 0.0 0.0 0.00 0.00 0.00 79 1009.3
20210619123133 74 219 0.0 0.0 0.00 0.00 0.00 80 1009.1
20210619121509 74 217 1.0 0.0 0.00 0.00 0.00 81 1009.0
20210619120024 74 207 1.0 0.0 0.00 0.00 0.00 80 1008.8
20210619114608 74 225 0.0 0.0 0.00 0.00 0.00 81 1008.7
20210619113105 73 201 0.0 0.0 0.00 0.00 0.00 82 1008.6
20210619111511 73 189 0.0 0.0 0.00 0.00 0.00 82 1008.6
20210619110042 73 184 0.0 0.0 0.00 0.00 0.00 83 1008.5
20210619104607 72 182 0.0 0.0 0.00 0.00 0.00 83 1008.4
20210619103058 72 202 0.0 0.0 0.00 0.00 0.00 83 1008.2
20210619101612 72 215 0.0 0.0 0.00 0.00 0.00 83 1008.3
20210619100214 72 242 0.0 0.0 0.00 0.00 0.00 84 1008.2
20210619094557 72 219 0.0 0.0 0.00 0.00 0.00 84 1008.3
20210619093106 71 203 0.0 0.0 0.00 0.00 0.00 85 1008.1
20210619091658 71 204 0.0 0.0 0.00 0.00 0.00 86 1008.2
20210619090055 71 148 0.0 0.0 0.00 0.00 0.00 88 1008.4
20210619084613 71 147 0.0 0.0 0.00 0.00 0.00 89 1008.5
20210619083222 71 142 0.0 0.0 0.00 0.00 0.00 88 1008.6
20210619081553 71 217 0.0 0.0 0.00 0.00 0.00 87 1008.6
20210619080036 71 217 0.0 0.0 0.00 0.00 0.00 86 1008.9
20210619074618 71 217 0.0 0.0 0.00 0.00 0.00 86 1009.0
20210619073052 71 217 0.0 0.0 0.00 0.00 0.00 86 1008.9
20210619071609 71 202 0.0 0.0 0.00 0.00 0.00 85 1009.1
20210619070100 71 183 0.0 0.0 0.00 0.00 0.00 85 1009.2
20210619064655 71 169 0.0 0.0 0.00 0.00 0.00 84 1009.3
20210619063101 71 207 1.0 0.0 0.00 0.00 0.00 84 1009.7
20210619061730 71 205 1.0 0.0 0.00 0.00 0.00 83 1009.8
20210619060150 71 232 1.0 0.0 0.00 0.00 0.00 82 1010.0
20210619054517 71 192 1.0 0.0 0.00 0.00 0.00 81 1010.2
20210619053024 71 220 2.0 0.0 0.00 0.00 0.00 80 1010.3
20210619051547 71 163 2.0 0.0 0.00 0.00 0.00 79 1010.7
20210619050040 71 215 1.0 0.0 0.00 0.00 0.00 78 1010.9
20210619044621 71 196 1.0 0.0 0.00 0.00 0.00 77 1011.1
20210619043100 71 225 1.0 0.0 0.00 0.00 0.00 76 1011.4
20210619041559 71 240 1.0 0.0 0.00 0.00 0.00 75 1011.4
20210619040216 71 181 1.0 0.0 0.00 0.00 0.00 73 1011.2
20210619034631 71 202 2.0 0.0 0.00 0.00 0.00 73 1011.1
20210619033035 71 220 1.0 0.0 0.00 0.00 0.00 72 1011.4
20210619031540 71 238 1.0 0.0 0.00 0.00 0.00 71 1011.5
20210619030014 72 212 1.0 0.0 0.00 0.00 0.00 70 1011.8
20210619024526 72 196 1.0 0.0 0.00 0.00 0.00 71 1012.2
20210619023112 73 204 1.0 0.0 0.00 0.00 0.00 72 1012.4
20210619021530 73 213 1.0 0.0 0.00 0.00 0.00 71 1012.3
20210619020042 73 232 1.0 0.0 0.00 0.00 0.00 72 1012.1
20210619014615 73 159 1.0 0.0 0.00 0.00 0.00 72 1012.1
20210619013120 74 128 0.0 0.0 0.00 0.00 0.00 71 1011.9
20210619011631 75 147 1.0 0.0 0.00 0.00 0.00 69 1011.6
20210619010218 76 212 1.0 0.0 0.00 0.00 0.00 65 1011.9
20210619010011 76 212 1.0 0.0 0.00 0.00 0.00 65 1011.9
20210619004533 76 208 1.0 0.0 0.00 0.00 0.00 65 1011.9
20210619003134 76 223 0.0 0.0 0.00 0.00 0.00 62 1011.8
20210619001548 77 211 1.0 0.0 0.00 0.00 0.00 62 1011.9
20210619000105 77 215 2.0 0.0 0.00 0.00 0.00 62 1011.8
20210618234914 78 142 2.0 0.0 0.00 0.00 0.00 59 1011.6
20210618233036 78 226 1.0 0.0 0.00 0.00 0.00 57 1011.3
20210618231551 79 238 1.0 0.0 0.00 0.00 0.00 56 1011.5
20210618230144 80 177 2.0 0.0 0.00 0.00 0.00 53 1011.3
20210618224631 81 211 1.0 0.0 0.00 0.00 0.00 54 1011.7
20210618223150 81 238 1.0 0.0 0.00 0.00 0.00 52 1011.8
20210618221606 80 237 1.0 0.0 0.00 0.00 0.00 50 1012.2
20210618220042 82 229 2.0 0.0 0.00 0.00 0.00 49 1012.3
20210618214538 82 250 2.0 0.0 0.00 0.00 0.00 48 1012.6
20210618213229 83 198 2.0 0.0 0.00 0.00 0.00 47 1012.7
20210618211640 82 211 2.0 0.0 0.00 0.00 0.00 47 1012.9
20210618210103 83 225 4.0 0.0 0.00 0.00 0.00 44 1013.0
20210618204600 83 225 3.0 0.0 0.00 0.00 0.00 42 1013.2
20210618203052 83 246 3.0 0.0 0.00 0.00 0.00 41 1013.7
20210618201558 84 265 3.0 0.0 0.00 0.00 0.00 41 1013.9
20210618200103 84 267 3.0 0.0 0.00 0.00 0.00 42 1014.0
20210618194643 83 265 3.0 0.0 0.00 0.00 0.00 41 1014.3
20210618193005 83 242 4.0 0.0 0.00 0.00 0.00 41 1014.5
20210618191650 83 321 3.0 0.0 0.00 0.00 0.00 43 1014.7
20210618191509 83 145 3.0 0.0 0.00 0.00 0.00 41 1014.7
20210618190011 83 263 5.0 0.0 0.00 0.00 0.00 41 1015.0
20210618184750 83 241 4.0 0.0 0.00 0.00 0.00 41 1015.0
20210618183215 83 265 2.0 0.0 0.00 0.00 0.00 46 1015.1
20210618183015 83 261 2.0 0.0 0.00 0.00 0.00 50 1015.1
20210618181518 83 247 5.0 0.0 0.00 0.00 0.00 48 1015.0
20210618180030 83 230 3.0 0.0 0.00 0.00 0.00 43 1015.2
20210618174532 83 208 3.0 0.0 0.00 0.00 0.00 50 1015.2
20210618173233 82 290 4.0 0.0 0.00 0.00 0.00 43 1015.5
20210618173002 82 305 3.0 0.0 0.00 0.00 0.00 43 1015.5
20210618171540 82 302 3.0 0.0 0.00 0.00 0.00 46 1015.7
20210618170145 81 195 3.0 0.0 0.00 0.00 0.00 47 1016.0
20210618164621 81 210 3.0 0.0 0.00 0.00 0.00 49 1016.1
20210618163241 81 198 4.0 0.0 0.00 0.00 0.00 50 1016.1
20210618161541 81 204 3.0 0.0 0.00 0.00 0.00 48 1016.3
20210618160029 80 236 4.0 0.0 0.00 0.00 0.00 48 1016.4